Regional Weather Roundup
Issued by NWS Wakefield, VA

Home | Current Version | Previous Version | Graphics & Text | Print | Product List | Glossary On
Versions: 1 2 3 4 5 6 7 8 9 10 11 12 13 14 15 16 17 18 19 20 21 22 23 24 25 26 27
000
ASUS41 KAKQ 120515
RWRAKQ

REGIONAL WEATHER ROUNDUP
NATIONAL WEATHER SERVICE WAKEFIELD VA
1200 AM EST TUE DEC 12 2017

Note: "fair" indicates few or no clouds below 12,000 feet with no
significant weather and/or obstructions to visibility. * = Denotes
station may not report precipitation (e.g., rain,snow,etc.),
thunder or fog.

VAZ042-051-052>054-056-120600-
NORTHERN VIRGINIA

CITY           SKY/WX    TMP DP  RH WIND       PRES   REMARKS
WASH NATIONAL  CLOUDY    42  34  73 S12       29.85F
DULLES         CLOUDY    40  30  67 S8        29.82F
FORT BELVOIR   CLOUDY    40  31  71 SE8       29.83F
QUANTICO       PTCLDY    42  35  76 S18       29.85F
FREDERICKSBRG* CLEAR     37  31  81 S9        29.84F
STAFFORD*      PTCLDY    33  28  82 SE5       29.87F
WARRENTON      PTCLDY    41  26  54 S7        29.80F
CULPEPER*      CLOUDY    37  27  67 CALM      29.82F
MANASSAS*      CLOUDY    39  29  67 S8        29.83F
LEESBURG*      CLOUDY    41  32  70 SW5       29.83F
WINCHESTER     CLOUDY    37  27  65 S7        29.76F
FRONT ROYAL*   CLOUDY    37  28  70 CALM      29.76F
LURAY*         MOCLDY    43  30  61 SW10      29.76F
$$

VAZ048-049-060>072-079>083-120600-
CENTRAL AND SOUTH CENTRAL VIRGINIA

CITY           SKY/WX    TMP DP  RH WIND       PRES   REMARKS
RICHMOND       PTCLDY    37  30  75 S10       29.87F
CHESTERFIELD*  NOT AVBL
PETERSBURG*    CLOUDY    34  28  80 S3        29.89F
HANOVER        CLEAR     37  30  75 SE5       29.87F
TAPPAHANNOCK*    N/A    N/A N/A N/A MISG        N/A
QUINTON*       FAIR      35  31  84 S6        29.89F
CHARLOTTSVILLE MOCLDY    39  28  64 S9        29.80F
GORDONSVILLE*  PTCLDY    30  28  91 CALM      29.82F
ORANGE*        PTCLDY    34  28  80 CALM      29.82F
LOUISA*        PTCLDY    38  28  65 S7        29.86F
BUMPASS*       FAIR      37  28  71 S3        29.84F
FARMVILLE*     CLEAR     35  32  88 S5        29.83F
CREWE*         FAIR      38  31  78 S5        29.86F
FORT PICKETT*  NOT AVBL
CHASE CITY*    FAIR      39  30  69 S3        29.87F
CLARKSVILLE*   FAIR      41  30  65 S8        29.87F
SOUTH HILL*    CLEAR     38  32  78 S7        29.94F
LAWRENCEVILLE* FAIR      38  29  72 SE3       29.88F
EMPORIA*       CLEAR     32  30  93 SE5       29.92F
$$

VAZ088>098-120600-
SOUTHEAST VIRGINIA

CITY           SKY/WX    TMP DP  RH WIND       PRES   REMARKS
NORFOLK        PTCLDY    41  34  76 S7        29.94F
VIRGINIA BEACH PTCLDY    42  30  62 S5        29.95F
NORFOLK NAVAL  CLOUDY    42  33  70 S6        29.95F
WEST POINT*    CLOUDY   N/A N/A N/A SE6       29.92F
SALUDA*        FAIR      40  35  80 S7        29.92F
NEWPORT NEWS   CLOUDY    42  34  73 S8        29.93F
LANGLEY AFB    CLOUDY    43  35  75 S8        29.93F
FORT EUSTIS    MOCLDY    41  34  76 S8        29.90F
WILLIAMSBURG*  PTCLDY    43  36  75 S9        29.93F
HR EXEC AP*    FAIR      38  34  85 S5        29.95F
FRANKLIN*      MOCLDY    37  32  82 S6        29.94F
US460-WAKEFLD  PTCLDY    36  32  85 CALM      29.92F
$$

VAZ020-022-025-037-045-120600-
WEST CENTRAL AND SOUTHWEST VIRGINIA

CITY           SKY/WX    TMP DP  RH WIND       PRES   REMARKS
STAUNTON*      CLOUDY    33  27  78 SW3       29.79F
WAYNESBORO*    CLOUDY    36  28  73 N3        29.77F
HOT SPRINGS VA MOCLDY    38  24  56 SW12      29.73F
LYNCHBURG      CLOUDY    34  27  75 S7        29.82F
DANVILLE       CLEAR     40  30  67 S5        29.86F
SOUTH BOSTON*  FAIR      39  29  68 S5        29.86F
MARTINSVILLE   PTCLDY    29  27  93 CALM      29.86F
ROANOKE        CLOUDY    37  29  72 CALM      29.83F
BLACKSBURG     PTCLDY    32  28  85 CALM      29.82F
DUBLIN*        CLOUDY    33  29  83 W6        29.81F
MARION*        CLEAR     34  26  71 SW8       29.82F
HILLSVILLE*    CLEAR     38  28  68 SW10      29.80F
RICHLANDS*     FAIR      45   6  20 SW14G30   29.79F
WISE*          CLOUDY    43  32  65 SW16G25   29.80S
ABINGDON*      PTCLDY    34  29  80 CALM      29.83F
$$

MDZ021>025-VAZ099-100-120600-
SOUTHERN MARYLAND AND THE DELMARVA PENINSULA

CITY           SKY/WX    TMP DP  RH WIND       PRES   REMARKS
PATUXENT RIVER CLEAR     41  32  70 SE8       29.88F
BAY BRIDGE APT CLOUDY    41  34  75 S13       29.88F
LEONARDTOWN    CLEAR     41  32  70 SE5       29.89F
DOVER          CLOUDY    38  33  82 SE8       29.90F
GEORGETOWN     CLEAR     36  28  73 S9        29.92F
EASTON         PTCLDY    41  30  65 S9        29.93F
CAMBRIDGE      CLEAR     36  32  87 SE10      29.91F
SALISBURY      PTCLDY    37  30  75 S6        29.92F
OCEAN CITY     PTCLDY    43  34  70 SW5       29.94F
WALLOPS ISLAND CLOUDY    44  36  73 S12       29.94F
ACCOMACK*      PTCLDY    41  36  81 S8        29.93F
$$

NCZ012>017-030>032-120600-
NORTH CENTRAL AND EASTERN NORTH CAROLINA

CITY           SKY/WX    TMP DP  RH WIND       PRES   REMARKS
ROANOKE RAPIDS FAIR      37  32  81 CALM      29.93F
RALEIGH        CLEAR     42  29  59 S7        29.91F
ELIZABETH CITY CLEAR     39  37  92 S5        29.95F
AHOSKIE*       CLEAR     35  31  87 S3        29.95F
EDENTON*       CLEAR     41  37  86 S7        29.97F
CURRITUCK*     CLEAR     37  34  89 CALM      29.97F
KILL DEVIL HLS CLEAR     42  35  74 CALM      29.96F
MANTEO         CLEAR     36  32  86 S3        29.98F
CAPE HATTERAS  CLEAR     39  37  92 NW5       29.96F
TARBORO*       NOT AVBL
GOLDSBORO      CLEAR     39  30  70 CALM      29.94F
WASHINGTON     CLEAR     34  32  92 CALM      29.98S
GREENVILLE     CLEAR     36  32  87 CALM      29.98F
NEW BERN       CLEAR     36  33  89 W7        29.98F
WILMINGTON     CLEAR     35  33  92 CALM      29.98F
$$

VAZ048-120600-
ELSEWHERE

CITY           SKY/WX    TMP DP  RH WIND       PRES   REMARKS
HARRISBURG PA  CLOUDY    36  28  73 SE8       29.82F
BALTIMORE      MOCLDY    41  30  65 S5        29.85F
ANNAPOLIS      PTCLDY    43  38  82 SE9       29.85F
ANDREWS AFB    CLOUDY    38  30  74 SE10      29.83F
PHILADELPHIA   CLOUDY    36  25  64 E5        29.91F
HENDERSON NC   CLEAR     38  28  66 S8        29.89F
GREENSBORO     CLEAR     38  30  73 S7        29.85F
ROCKY MOUNT    CLEAR     37  31  78 S5        29.94F
$$

VAZ100-120600-
MARINE

STATION/POSITION TIME  TEMP    WIND        PRES    WAVE   SWELL
                       AIR SEA DIR/SP/G            HT/PER HT/PER
                 (UTC) (F)     (DEG/KT/KT) (MB)    (FT/S) (FT/S)
BRANDYWINE LGT   0442   45     190/ 20/ 23 1013.5F
CAPE MAY NJ      0448   45 44  190/  7/ 11 1012.9F
LEWES DE         0442   41 47  170/  5/  8 1013.4F
15NM E FENWICK I 0450   49 54  180/ 17/ 19 1014.4F   3/ 3   2/ 9
OCEAN-CITY-INLET 0442   47 43  210/ 12/ 16 1014.4F
WACHAPREAGUE VA  0442   42 44  220/  4/  6 1014.2F
THOMAS POINT MD  0500   44 48  160/ 21/ 23   N/A
GOOSES REEF MD   0500   46 48  170/ 19/ 23 1011.8    2/ 3
COVE POINT MD    0442   45     190/ 19/ 23 1012.7F
SOLOMONS ISLAND  0442   43 48  150/ 11/ 13 1011.6F
BISHOPS HEAD MD  0442   44 43  170/ 14/ 16 1013.1F
PINEY POINT MD   0442          180/ 15/ 19   N/A
POTOMAC MD       0500   46 49  170/ 16/ 19 1011.4    2/ 3
CAMBRIDGE MD     0442   38 45              1013.1F
LEWISETTA VA     0442   42 44  190/  9/ 11 1012.4F
RAPPAHANNOCK LGT 0442          170/ 16/ 18 1014.1F
STINGRAY PT      0500   46 48  210/ 16/ 19 1013.3    2/ 3
YORK RVR RNG VA  0442   44     180/ 14/ 16 1014.2F
YORKTOWN VA      0442   43 49  180/  4/  5 1013.2F
JAMESTOWN VA     0500      48  180/  8/ 12   N/A     1
DOMINION TERM VA 0442   43     170/  9/ 11 1014.1F
KIPTOPEKE VA     0442      48  190/ 17/ 21   N/A
CAPE HENRY VA    0442   43     170/  8/ 10   N/A
WILLOUBY STN VA  0442                      1013.7F
S CRANEY ISL VA  0442   43     180/  8/ 10 1014.0F
CAPE HENRY BUOY  0500      53                N/A     3/ 4
1ST LANDING BUOY 0500   44 50  190/ 12/ 16 1014.1    1/ 3
CAPE CHARLES BUO 0421      53                N/A     3/ 3
64NM E OF VA BCH 0450   52 58  210/ 12/ 16 1015.1F   2/ 9   2/ 9
DUCK PIER NC     0442   46 55  180/  9/ 11 1014.2F
44100 DUCK FRF   0445      55                N/A     2/ 8
44056 DUCK FRF   0500      54                N/A     2/10
OREGON INLET NC  0442   44 46  160/  3/  4 1014.9F
HATTERAS NC      0442   48 54  290/  2/  3 1014.5F
DIAMOND SHLS NC  0450   61 75  220/ 12/ 21 1014.5F   2/ 8   2/ 8
CAPE LOOKOUT NC  0500          220/  7/  9 1014.7F
$$




USA.gov is the U.S. government's official web portal to all federal, state and local government web resources and services.